Wind_Speed
14 15 15 16 16 16 16 16 16 16 15 15 15 15 15 15 14 14 15 14 14 14 15 15 15 15 15 15 15 15 14 14 14 14 14 14 14 14 14 14 14 14 14 15 15 15 15 16 17 18 18 18 18 18 18 20 20 20 19 19 20 19 20 20 16 16 22 26 27 28 30 32 32 31 32 34 33 33 34 33 32 32 32 33 34
15 16 16 17 17 17 17 16 16 15 15 15 15 15 15 15 14 15 15 15 14 14 15 15 15 15 15 15 15 14 14 14 14 13 13 13 13 13 13 14 14 13 14 15 15 14 14 15 16 17 17 17 17 17 17 20 21 21 21 20 20 20 20 20 19 18 21 26 27 28 28 29 30 31 32 32 33 35 35 33 32 32 32 33 34
16 16 17 17 17 17 17 16 16 16 16 16 15 15 15 14 14 14 15 15 15 15 15 15 15 15 15 15 15 14 14 14 13 13 13 13 13 13 13 13 13 13 14 14 14 14 14 15 16 16 16 17 17 17 18 21 22 22 22 21 21 21 20 20 20 21 22 24 26 28 28 28 29 30 31 32 33 33 32 32 32 33 33 32 33
16 17 17 18 18 18 17 16 16 16 16 16 16 15 14 14 14 14 14 14 14 14 14 15 15 15 16 15 15 14 13 13 13 13 13 13 13 12 12 13 13 14 14 14 13 13 13 14 15 16 16 17 17 18 19 22 23 23 22 21 20 20 20 20 20 21 22 24 25 27 28 28 28 29 31 32 32 31 31 32 32 32 32 31 33
17 18 18 18 18 17 17 16 16 16 16 16 15 15 15 14 14 14 14 14 14 14 14 15 15 15 16 15 15 14 13 12 12 13 12 12 13 13 13 13 13 13 13 13 13 13 13 13 14 15 16 17 18 18 19 23 25 23 22 21 20 20 20 21 22 22 23 24 26 27 27 27 28 28 29 30 32 32 31 30 30 30 31 32 34
18 18 18 18 18 17 17 17 17 17 16 16 15 15 15 14 14 14 14 14 14 14 15 15 15 15 15 15 15 15 13 12 12 12 12 12 12 12 12 12 12 12 11 12 13 13 13 13 14 15 15 17 18 17 20 24 25 23 21 19 19 20 21 22 23 23 24 24 26 27 27 28 28 28 28 29 31 32 31 31 30 29 30 33 35
18 18 18 18 18 18 17 17 17 17 16 16 15 15 14 14 14 14 13 14 14 14 14 15 15 15 15 15 15 16 16 15 13 12 11 11 11 11 11 11 11 11 11 12 12 13 13 13 14 14 15 17 18 18 22 26 25 22 20 19 19 20 22 23 23 23 23 24 25 26 27 28 28 28 28 29 29 29 29 30 30 30 30 31 33
19 18 18 18 18 18 17 17 17 17 16 16 15 15 15 14 14 14 13 14 13 13 14 14 14 15 15 15 16 16 17 16 15 13 12 11 11 10 10 11 11 11 11 11 12 13 13 14 14 13 15 18 17 19 25 27 25 23 21 20 21 21 21 22 23 22 23 24 24 25 27 28 28 29 29 29 27 27 28 28 29 31 31 30 31
19 19 18 18 18 18 17 17 17 16 16 16 16 15 15 14 14 14 13 13 13 14 14 14 14 14 14 15 16 16 16 15 15 14 12 11 11 10 9 10 10 10 10 10 11 12 12 14 14 13 16 17 15 20 27 27 25 25 23 22 24 23 21 21 22 23 23 23 23 25 26 26 27 29 30 28 28 29 30 28 29 31 32 33 34
20 19 19 18 18 18 18 18 17 17 17 16 16 15 15 14 14 14 14 13 13 13 14 14 14 13 14 14 15 15 15 13 12 11 11 11 11 10 9 9 10 10 10 9 10 10 11 13 14 13 16 16 15 22 28 28 28 25 21 22 24 21 21 22 23 24 23 22 23 24 24 25 27 29 31 31 31 31 29 28 30 32 32 31 32
20 19 19 19 19 18 18 18 17 17 17 16 16 15 15 15 14 14 14 13 13 13 13 14 13 13 13 13 14 15 13 12 10 10 10 10 11 11 10 9 9 10 10 9 10 10 9 13 15 14 16 16 16 23 28 28 30 26 19 21 22 20 22 24 23 24 24 23 24 25 24 26 29 31 32 33 33 32 31 30 30 31 28 24 24
20 20 20 19 19 18 18 18 17 17 17 16 16 15 15 15 15 14 14 13 13 13 13 13 13 13 13 14 15 15 13 11 10 10 10 10 10 11 10 9 9 10 10 10 10 9 10 14 15 14 17 16 16 23 28 29 31 28 23 23 22 21 23 24 22 24 26 24 24 25 25 27 30 32 33 35 36 35 34 32 29 28 28 24 24
21 20 20 20 19 19 18 18 18 17 17 16 16 15 15 15 14 14 14 13 13 13 12 12 12 12 13 15 16 17 15 11 9 9 9 9 9 10 9 8 8 9 10 11 10 8 11 15 15 14 17 16 17 23 27 28 32 30 25 25 24 23 24 24 23 26 27 25 24 26 26 27 30 34 36 38 38 37 35 33 31 30 29 28 30
21 21 20 20 19 19 18 18 18 17 17 17 16 16 15 15 15 14 14 13 13 12 12 11 11 11 12 14 17 18 16 13 10 8 8 9 9 9 8 7 7 8 10 12 9 7 12 16 14 14 17 17 19 24 26 27 31 30 26 25 25 24 25 24 25 27 28 27 27 28 27 28 33 37 40 40 38 38 36 36 36 34 34 36 39
21 21 21 20 20 19 19 19 19 18 17 17 16 16 15 15 14 13 13 13 12 12 11 11 11 11 10 11 16 18 17 15 11 9 8 9 10 11 10 9 8 8 11 13 10 7 12 15 12 13 16 19 23 25 25 27 30 29 26 26 26 26 26 26 27 29 29 30 32 31 28 32 38 41 41 41 40 39 39 40 40 38 38 39 37
21 21 21 20 19 19 19 20 19 18 18 17 17 16 15 14 14 13 13 12 12 12 11 10 10 10 9 9 13 17 18 16 14 12 10 9 11 14 12 10 10 10 11 14 11 8 12 14 11 12 17 22 25 26 25 27 30 29 27 27 28 27 26 28 30 30 31 33 34 30 28 35 42 42 42 43 42 43 43 41 39 36 32 29 27
21 21 21 20 20 20 20 20 20 19 18 17 17 16 15 14 14 13 13 12 12 11 11 10 9 9 8 7 9 14 17 17 15 14 13 10 11 15 14 11 11 12 13 13 11 9 12 13 10 13 21 25 26 27 27 28 30 31 29 29 28 27 28 32 33 33 35 35 31 26 29 38 42 42 44 44 43 44 43 37 35 33 26 19 17
22 22 21 21 21 20 20 20 20 19 18 18 17 16 15 14 13 13 12 12 12 12 11 11 10 9 9 8 6 9 15 18 17 15 15 12 12 14 14 13 12 13 14 14 12 10 12 12 11 16 23 26 27 28 28 29 31 32 31 30 28 28 31 35 37 37 37 34 28 26 32 40 42 43 45 45 44 44 40 36 36 34 25 18 17
22 22 22 21 21 21 21 20 20 19 19 18 17 16 15 14 13 12 12 11 11 11 11 10 10 10 10 10 8 6 10 17 18 15 14 14 14 13 13 14 15 14 14 16 15 13 13 13 14 19 24 26 28 29 29 29 31 31 32 30 27 28 34 39 39 38 36 31 29 30 35 40 43 44 46 46 44 43 40 39 39 34 26 23 23
23 23 22 22 22 21 21 20 20 19 19 17 16 16 15 14 13 12 11 11 10 10 9 9 8 8 7 8 9 7 7 12 16 15 14 16 17 15 13 15 16 15 14 16 16 15 15 16 17 20 23 26 28 29 29 29 30 30 31 29 27 31 39 40 37 34 32 31 31 32 36 41 45 45 46 46 44 44 43 40 38 35 30 28 27
24 24 23 23 22 21 21 20 20 19 18 17 16 15 14 13 12 11 11 11 11 10 9 9 8 7 6 4 4 4 5 8 12 14 13 15 17 17 15 15 17 16 14 15 16 15 16 18 19 20 24 27 28 28 28 29 29 29 29 28 29 35 37 35 33 31 31 32 32 33 37 42 45 46 46 45 44 45 45 41 38 38 35 30 28
25 24 23 23 22 21 21 20 20 19 17 17 16 14 13 12 11 11 11 11 10 9 8 8 7 7 6 4 3 2 2 6 10 13 13 13 15 16 15 16 17 17 15 15 15 16 17 19 20 22 24 26 27 27 27 28 30 31 29 29 34 35 32 29 31 32 32 31 31 33 37 40 43 45 45 44 45 46 45 42 40 39 36 31 29
25 24 24 23 22 22 22 20 19 18 17 17 16 14 13 12 11 12 11 11 9 8 8 7 6 6 6 5 4 4 1 4 7 11 13 12 13 14 14 15 16 16 16 16 15 16 18 19 20 22 23 24 25 25 25 27 31 31 29 30 34 34 30 29 32 32 31 31 31 33 36 38 41 44 44 44 46 46 43 42 41 38 35 32 29
25 25 24 24 23 22 21 19 19 18 17 16 15 14 13 12 12 12 11 11 11 9 9 8 7 6 6 5 5 5 3 3 5 10 11 11 11 12 13 14 15 14 15 14 14 16 19 19 21 22 22 22 23 24 24 26 29 29 28 29 31 31 29 30 32 32 31 31 32 33 35 37 40 43 44 45 46 45 43 43 42 38 35 35 30
26 25 24 24 23 22 20 19 18 18 17 16 14 13 13 12 11 10 10 10 10 9 9 8 7 6 6 5 6 6 5 4 5 8 9 9 9 10 11 13 13 13 13 13 15 17 18 19 20 20 21 21 22 23 24 26 27 28 28 29 30 29 29 31 32 32 30 30 32 33 34 37 40 42 43 44 43 42 43 45 44 42 42 42 37
26 25 24 23 23 21 20 19 18 18 16 15 14 13 12 12 10 10 10 9 8 8 8 7 7 6 5 4 5 6 5 4 3 5 7 8 8 9 10 11 12 12 11 13 16 18 18 18 19 19 21 21 21 22 24 25 27 28 28 29 29 29 29 30 31 30 29 30 33 33 34 37 39 40 42 44 42 41 43 44 44 45 46 44 41
26 25 24 24 22 21 21 20 19 18 16 14 14 12 11 11 10 9 9 9 8 7 7 7 6 6 5 4 4 5 6 5 2 4 6 8 9 9 10 11 12 13 13 15 18 19 19 19 19 19 20 20 20 22 24 25 26 27 27 29 30 29 29 30 30 30 30 31 33 33 35 38 38 37 41 44 42 41 42 42 41 43 45 41 38
26 25 24 23 22 21 22 21 20 18 16 14 14 12 10 11 10 8 8 8 8 7 7 6 5 4 5 5 4 4 6 5 2 5 6 7 9 10 10 11 12 13 14 17 19 21 21 20 19 18 19 19 20 22 23 24 25 26 26 28 30 30 29 30 31 31 32 34 34 34 36 39 37 35 38 41 41 41 42 40 39 41 43 40 35
26 25 24 23 22 22 23 22 20 18 16 14 12 11 9 10 10 9 8 7 7 8 8 8 6 4 3 4 3 3 5 2 2 5 6 7 8 10 10 10 11 12 14 17 20 22 22 21 19 18 19 19 20 21 23 24 25 25 26 27 29 30 29 30 31 31 33 36 35 34 37 39 37 35 36 38 40 42 42 40 38 39 40 39 34
26 24 23 23 23 23 23 21 18 17 16 14 13 11 9 7 7 9 8 7 7 7 8 8 8 6 5 4 3 3 2 2 4 4 5 6 8 9 9 9 10 12 14 17 19 21 22 21 18 17 18 19 19 21 23 24 24 25 26 27 29 30 29 31 31 31 33 36 35 34 37 39 37 36 35 35 38 41 42 40 38 37 37 36 34
25 23 23 23 23 23 22 20 18 17 16 14 14 13 10 8 7 6 5 6 8 8 7 6 7 7 7 4 3 4 5 5 5 5 6 6 7 8 8 8 10 12 14 17 18 19 20 19 16 16 18 18 18 21 23 23 24 25 25 27 29 29 29 32 33 32 33 35 34 34 36 38 37 36 35 35 36 37 40 40 38 36 35 34 33
24 22 22 24 24 23 22 19 17 17 16 14 14 14 12 11 10 7 5 5 8 9 9 8 7 8 9 7 5 5 5 4 4 5 5 6 7 8 8 9 10 12 14 17 18 17 17 16 16 16 17 18 18 21 22 22 23 24 24 26 28 28 28 31 32 31 33 34 33 34 36 37 37 36 35 36 36 33 35 38 38 36 35 33 33
23 22 23 25 24 23 21 18 16 18 17 15 16 17 15 14 14 12 10 9 9 9 9 8 7 7 7 7 6 5 5 4 4 5 5 5 7 7 8 9 11 12 14 15 15 13 13 14 14 15 16 17 18 20 20 21 22 23 24 25 26 26 28 31 31 31 33 33 31 33 35 36 36 36 34 36 37 33 31 35 36 35 33 32 32
24 23 25 27 24 22 21 19 17 17 18 17 17 18 18 18 18 18 16 15 14 13 12 12 10 9 7 5 4 4 4 4 4 4 4 4 5 7 9 10 10 11 12 11 9 9 11 13 14 14 15 16 17 18 19 20 21 22 23 24 24 25 27 31 30 30 33 33 30 32 35 34 35 35 33 33 36 34 30 31 34 34 32 31 30
24 23 25 26 23 20 20 20 18 17 17 18 17 17 17 19 21 22 20 18 18 18 17 16 14 12 10 7 5 4 3 3 4 4 4 3 4 6 9 11 11 13 13 9 6 7 11 13 13 12 14 15 16 17 18 19 19 20 22 23 24 25 27 30 30 30 32 32 31 32 34 34 34 35 33 32 33 34 32 30 32 33 32 31 30
23 23 24 25 23 19 17 19 20 18 17 17 17 15 14 15 19 22 21 20 19 19 19 19 17 14 13 11 8 7 6 5 4 4 5 5 5 7 10 11 12 15 15 10 7 8 11 11 11 12 13 13 15 16 17 18 18 19 21 22 23 24 27 29 29 30 30 31 30 32 34 34 33 34 34 32 32 34 33 30 30 32 33 32 31
23 23 24 24 23 20 17 17 19 19 18 16 16 15 14 13 14 17 17 17 18 17 16 18 19 18 16 14 13 12 11 8 7 7 8 9 9 11 13 13 13 16 16 11 8 9 10 10 10 11 12 12 13 14 16 17 17 18 20 21 21 23 26 27 27 29 29 29 29 30 32 33 32 32 34 32 31 33 35 31 28 29 32 32 30
21 22 24 22 21 21 19 17 16 18 18 17 15 15 15 14 14 14 13 13 14 13 11 13 18 21 20 17 16 15 14 11 11 12 12 13 14 14 15 15 15 17 16 12 9 9 10 10 10 10 11 11 12 13 14 16 16 17 19 20 20 22 24 25 26 28 29 28 28 29 31 32 31 30 32 32 30 32 34 33 29 27 27 29 29
18 20 25 23 20 19 20 19 18 18 18 17 15 15 15 15 15 15 14 12 12 12 10 10 13 17 18 18 18 18 17 16 16 16 15 15 15 15 16 16 16 15 14 11 9 9 10 9 9 9 10 10 11 13 14 15 15 16 18 19 20 21 23 24 25 27 28 28 28 28 30 31 30 29 31 33 31 31 33 33 30 28 26 25 26
18 19 24 27 23 18 16 17 18 19 18 17 16 15 14 15 15 15 14 13 12 12 12 12 13 13 14 15 17 19 19 18 17 16 15 15 15 15 15 15 14 13 12 11 10 10 10 9 8 9 10 10 11 12 13 14 15 16 17 17 18 19 21 21 23 26 26 27 28 28 29 31 30 28 30 32 31 30 31 32 30 29 27 25 24
20 18 22 28 27 22 17 15 16 18 19 19 17 16 15 15 15 14 14 14 14 13 13 14 13 13 13 13 14 16 16 15 16 14 13 13 14 13 14 14 13 12 12 11 11 10 9 9 9 9 9 10 11 12 13 13 14 15 16 16 16 18 19 19 21 24 24 25 27 28 28 30 29 27 29 31 30 29 31 32 31 29 28 26 23
20 17 19 24 26 23 19 17 16 16 19 20 19 17 16 15 15 16 15 14 14 13 14 14 14 14 15 15 15 15 15 16 16 14 13 14 14 15 15 14 13 13 13 12 12 12 10 10 10 10 9 10 11 11 12 13 14 15 16 15 15 16 17 18 20 22 22 24 25 25 26 28 29 27 27 29 29 29 30 32 32 30 29 27 25
20 18 19 23 23 20 19 18 16 15 17 19 19 18 17 15 15 16 17 16 16 16 15 15 14 14 14 15 16 17 18 18 17 15 15 16 17 16 15 15 14 14 13 12 12 11 10 10 10 10 10 11 11 12 13 14 14 15 15 15 15 15 14 16 19 21 21 22 24 23 23 25 27 27 28 28 28 28 29 30 31 31 29 28 28
21 20 21 24 24 22 20 19 18 16 16 17 17 18 18 17 16 16 16 17 19 19 18 17 16 15 15 14 15 18 19 18 16 15 16 17 17 17 18 18 17 15 14 13 12 12 11 11 11 11 12 13 14 13 13 13 13 14 15 15 15 14 13 14 17 19 19 20 21 21 21 22 24 25 27 27 27 27 28 28 30 31 29 27 28
22 21 21 22 24 23 22 21 20 19 18 18 17 17 18 18 18 18 17 17 17 18 19 19 19 19 17 16 16 18 19 19 18 18 18 19 19 18 18 18 17 16 15 15 14 14 13 12 12 13 14 15 15 15 15 15 15 14 14 15 15 14 14 15 16 17 18 19 20 19 18 20 21 23 25 25 25 26 27 26 28 29 28 25 26
22 21 20 20 21 22 22 22 21 20 19 19 18 18 18 19 19 19 19 18 17 17 17 17 18 19 20 19 18 19 21 21 20 20 20 20 21 20 20 19 19 18 17 16 15 14 14 13 13 15 17 18 19 19 19 18 16 14 14 14 14 15 16 17 17 16 18 19 19 17 16 16 18 21 23 23 23 24 25 25 26 28 28 24 23
20 19 19 18 18 19 20 21 22 21 20 19 19 19 19 19 20 20 20 20 20 19 18 17 17 18 19 20 20 20 21 22 22 21 21 20 19 19 19 19 18 18 17 16 16 15 15 14 15 16 18 19 20 21 21 20 18 17 16 14 13 15 17 18 17 18 19 19 18 16 14 14 15 18 20 21 21 22 24 24 24 26 27 24 22
19 19 19 18 17 17 18 19 21 22 21 20 20 20 20 20 20 20 20 21 22 22 22 21 20 20 19 19 19 20 21 22 23 23 22 21 20 20 20 20 20 20 21 22 22 22 22 21 20 20 20 21 22 22 22 22 21 20 18 15 15 17 19 19 19 20 20 19 18 16 13 12 13 14 17 19 19 19 21 22 22 24 25 23 21
19 19 19 18 17 17 18 18 19 20 21 20 20 20 20 20 20 19 19 19 20 21 22 22 22 22 21 21 20 20 20 21 21 21 21 21 21 20 20 20 21 21 22 24 25 26 26 24 23 22 23 23 23 23 23 23 24 24 21 19 18 19 21 21 21 21 21 20 18 16 14 13 12 12 14 17 17 17 18 20 21 22 23 21 20
19 18 19 19 18 18 18 18 18 18 19 20 20 19 19 20 20 20 20 20 19 19 19 20 20 21 22 22 22 23 23 23 23 22 22 21 21 20 21 22 23 23 24 25 27 27 27 26 25 24 23 23 23 23 24 24 25 26 26 23 21 21 22 23 23 23 22 21 20 17 15 13 13 12 12 14 15 16 16 18 19 20 21 20 18
21 18 17 18 18 19 19 19 18 18 18 19 19 19 20 20 20 20 20 21 21 20 20 20 20 20 20 20 21 22 22 23 23 23 22 22 21 20 20 21 22 22 22 22 23 23 23 25 26 25 25 25 25 25 25 25 26 27 28 27 25 25 25 25 25 25 24 22 21 19 16 15 14 13 12 13 14 15 15 16 17 18 18 17 16
Wind_Direction
128 127 126 124 122 120 119 118 117 116 114 110 106 103 100 97 94 91 87 83 80 77 73 69 65 63 61 59 57 55 53 52 52 52 51 50 48 47 46 45 45 44 42 40 39 38 36 35 32 26 22 19 13 9 4 359 354 349 346 342 337 335 332 325 316 312 316 320 321 321 322 323 323 324 324 323 324 325 323 322 321 319 318 317 315
128 127 124 123 122 121 119 118 117 115 111 107 104 101 99 96 94 91 87 83 80 77 73 70 66 63 61 58 56 54 53 52 52 51 51 50 49 47 45 45 43 43 42 41 39 37 35 34 31 25 21 18 13 7 0 356 353 347 343 341 335 333 333 329 323 318 318 322 322 322 323 324 322 322 323 322 322 323 322 321 321 319 317 315 313
130 130 127 125 124 123 120 119 117 113 109 106 104 102 99 97 94 90 87 84 80 77 74 70 68 64 60 57 54 54 54 53 52 51 50 48 47 46 45 44 43 42 43 42 38 35 34 34 30 23 20 16 9 4 359 354 352 346 341 338 334 333 335 334 328 322 319 321 322 323 323 323 321 320 321 320 319 320 320 320 320 318 316 315 313
133 132 130 127 125 123 120 119 116 112 109 106 105 103 101 99 96 92 90 86 83 80 75 71 69 65 61 56 53 54 54 54 52 50 49 48 46 44 44 44 43 43 43 41 37 33 31 32 30 22 16 13 4 358 356 352 349 344 339 337 337 336 336 334 329 324 320 319 321 322 322 321 320 320 320 319 319 319 318 318 318 317 316 316 315
136 134 132 130 127 124 121 119 116 113 111 108 106 104 101 98 96 93 90 87 84 81 77 72 68 64 61 57 52 52 56 61 60 53 47 46 45 44 45 45 44 44 44 40 36 32 26 29 31 21 12 8 0 355 353 349 346 343 339 339 339 338 336 332 329 325 320 318 320 322 322 321 320 320 321 321 320 320 317 316 316 316 316 316 315
138 136 134 131 128 125 123 120 117 115 112 110 107 105 103 100 97 94 91 88 85 81 78 73 69 65 61 57 53 52 58 67 70 64 54 49 47 44 46 48 44 43 44 41 37 29 23 27 27 18 10 4 359 356 352 349 346 343 341 342 342 339 335 331 330 328 324 322 322 322 322 322 320 320 323 324 322 320 318 316 315 315 315 314 314
140 138 136 133 130 127 124 122 119 116 114 112 109 106 104 101 98 96 93 91 88 85 81 74 70 67 61 58 56 56 59 64 66 68 64 59 54 46 43 45 43 41 41 40 37 29 22 22 21 16 9 2 0 -0 355 349 346 344 341 339 339 337 334 333 333 331 329 327 323 321 322 323 322 321 322 324 322 320 320 318 316 315 315 313 312
141 139 137 134 130 128 126 124 121 118 116 113 110 107 104 101 99 97 95 93 90 89 86 79 73 69 62 59 59 60 61 58 57 61 62 62 58 49 42 41 40 39 39 38 36 31 23 17 17 17 10 3 -0 357 354 350 347 343 340 336 333 332 332 334 335 334 331 327 323 324 325 325 324 323 323 324 322 321 322 318 314 314 313 311 310
141 140 137 133 131 129 127 125 122 120 118 114 111 109 106 103 102 99 96 94 92 91 89 84 78 72 64 59 60 61 59 54 51 51 51 53 53 48 42 38 37 34 33 38 37 32 26 18 14 11 5 -0 351 348 351 354 351 344 339 335 332 329 331 334 334 331 329 326 327 329 328 326 326 325 325 325 322 319 319 315 312 312 311 307 304
142 141 137 134 133 131 129 128 125 122 119 116 115 113 109 108 105 102 99 97 95 94 90 86 81 75 68 60 56 58 57 54 54 51 47 46 46 46 42 35 35 30 26 34 34 27 24 17 9 2 359 355 346 346 352 357 355 348 341 338 334 332 334 332 331 331 330 330 332 331 327 324 324 324 321 320 318 316 315 314 311 310 308 305 301
143 141 138 137 135 133 131 130 127 124 121 119 118 115 112 110 107 103 102 99 98 98 93 88 83 76 71 62 54 53 53 54 59 59 55 50 44 43 39 33 33 27 21 24 22 20 19 11 6 2 358 353 346 349 354 356 355 352 349 345 341 340 338 334 335 341 339 334 331 328 324 320 322 323 320 318 318 315 312 309 306 306 305 301 300
144 142 140 139 136 135 133 130 128 126 123 122 121 118 115 112 108 106 104 101 101 100 95 91 85 76 69 61 54 51 51 53 58 59 59 56 47 40 37 35 32 23 18 12 11 21 22 7 1 359 358 354 346 349 353 353 354 355 352 348 343 342 342 340 343 346 341 333 326 322 322 323 325 326 323 321 319 316 312 308 303 303 299 294 292
145 142 141 140 137 136 135 132 129 127 125 124 122 120 116 112 110 107 105 104 102 100 99 95 88 78 67 58 52 50 49 48 52 55 55 52 45 40 38 35 24 18 17 5 4 29 24 5 358 355 357 355 344 345 349 349 353 354 350 345 340 338 341 341 338 336 334 330 322 317 321 328 330 327 323 321 318 314 312 309 305 301 296 291 289
145 143 141 141 139 138 137 133 130 128 127 126 123 120 117 113 112 109 106 105 102 100 100 96 90 83 70 57 51 49 47 44 45 49 46 40 37 35 34 25 12 18 18 1 1 39 23 4 356 353 356 355 346 346 349 349 350 351 347 343 338 334 336 337 332 328 327 328 321 313 317 328 329 326 323 321 316 311 309 307 305 302 296 292 290
146 144 142 141 141 141 138 134 131 130 129 127 123 121 119 116 115 112 108 106 103 101 101 97 94 90 79 61 50 47 46 43 43 45 39 37 38 33 25 15 6 17 20 4 0 29 15 359 354 354 359 359 354 353 355 351 348 347 344 341 336 331 331 333 331 326 322 323 321 313 312 324 328 325 324 323 318 312 309 306 304 301 295 292 289
147 145 143 143 144 142 138 135 133 132 131 129 125 123 122 120 118 116 112 108 104 102 101 97 97 94 88 71 50 43 43 42 43 44 39 38 42 34 23 13 5 6 14 8 359 5 4 357 357 4 6 3 357 358 358 351 347 345 341 339 335 330 329 331 330 326 322 322 322 315 314 324 327 325 325 325 321 317 313 309 306 301 294 289 287
147 146 145 145 144 142 139 137 135 134 133 130 128 126 125 122 121 120 118 113 109 105 101 98 99 97 94 83 52 38 38 38 39 44 42 39 42 35 22 13 6 358 359 2 357 356 359 357 0 6 3 360 357 358 358 352 347 343 338 336 332 327 328 331 330 328 327 326 324 319 320 326 328 327 327 326 324 321 317 310 307 304 295 286 286
148 147 147 146 144 142 140 138 137 136 134 132 130 130 128 128 128 126 123 122 119 115 108 102 99 95 94 93 73 38 33 34 33 37 40 39 41 36 23 11 6 359 353 353 353 356 353 350 354 355 354 355 355 356 356 351 345 340 335 331 328 324 326 329 329 330 331 330 326 323 325 329 329 328 328 326 325 324 319 311 309 306 295 283 285
150 148 147 146 144 142 141 140 139 137 134 134 134 133 132 131 131 131 130 130 129 127 124 117 107 99 93 91 89 60 32 29 27 28 36 39 40 38 24 10 5 2 354 348 350 356 354 348 346 344 347 353 353 352 353 350 343 339 334 328 323 323 326 328 329 331 331 331 330 329 329 331 330 329 329 328 327 326 322 317 314 308 295 287 287
149 148 147 144 142 142 141 140 139 136 135 136 135 134 133 133 136 140 140 136 133 131 130 128 125 120 110 97 87 73 40 26 23 24 33 37 36 36 27 13 6 1 354 348 346 349 350 347 342 338 341 347 348 348 350 348 342 338 334 329 324 325 328 330 333 335 333 332 333 333 332 332 331 330 330 329 329 329 326 323 320 314 304 295 290
148 147 145 142 141 141 140 139 137 135 136 137 135 134 136 139 143 145 139 132 132 134 136 136 136 138 140 133 105 71 41 28 21 20 28 33 30 28 23 15 10 4 355 348 344 343 345 343 337 333 337 342 345 346 346 345 342 337 334 333 331 329 330 335 339 338 335 334 335 335 334 333 332 332 331 331 331 332 330 327 326 323 316 305 297
147 146 144 142 140 139 139 138 137 136 137 137 135 135 138 141 142 138 132 132 137 145 150 149 148 152 156 162 174 188 28 35 25 17 23 30 25 21 17 12 11 6 354 345 342 340 340 335 330 332 337 340 342 345 345 344 343 340 338 338 338 335 336 340 341 339 336 337 338 338 336 334 332 332 333 333 334 335 334 331 330 329 324 316 309
148 146 143 140 139 139 140 139 138 138 139 138 136 137 140 141 140 136 137 142 148 153 157 158 159 163 165 155 159 184 184 56 33 13 16 24 21 17 14 7 6 4 355 348 343 338 334 330 329 334 336 338 341 344 346 346 346 346 345 344 344 344 345 344 342 341 340 341 342 340 337 335 334 334 335 336 337 338 338 337 336 335 332 329 327
147 144 141 139 139 140 140 140 140 141 140 139 140 141 144 146 145 147 155 159 160 162 166 168 167 161 158 149 135 140 144 99 38 10 10 17 16 16 14 5 1 2 1 354 343 337 335 332 332 335 336 339 344 347 347 347 348 347 347 346 345 346 346 345 344 344 345 345 344 340 338 337 337 336 337 339 340 342 344 344 344 344 343 344 347
145 142 141 141 142 143 142 141 142 142 141 143 144 146 152 156 158 169 181 178 172 171 170 168 165 156 154 152 138 128 128 107 47 11 5 9 10 13 10 1 357 3 5 354 343 343 343 336 334 339 344 347 350 351 350 349 348 347 348 349 348 347 347 347 347 346 347 347 344 340 338 340 340 339 340 342 344 347 349 350 350 353 357 0 5
144 143 145 145 146 146 144 143 144 144 145 147 148 154 165 169 171 181 186 179 174 172 166 162 160 155 152 156 150 143 135 116 69 12 2 6 12 13 7 -0 1 6 3 350 345 348 347 339 338 347 353 353 352 352 351 350 349 349 350 351 350 349 349 350 349 348 348 347 343 340 339 341 341 341 344 347 349 352 353 353 353 356 0 5 10
146 147 148 149 149 148 145 146 147 148 150 153 156 166 177 177 177 180 178 176 175 171 166 164 161 158 157 160 165 157 142 123 72 2 357 3 9 11 8 3 2 4 359 347 344 345 343 340 343 352 354 352 352 353 353 351 350 350 351 351 351 350 350 352 352 351 349 347 344 341 341 343 343 345 349 352 352 354 356 357 357 358 0 5 11
149 151 151 151 151 150 148 150 150 152 158 162 165 174 180 180 178 169 157 161 165 165 166 162 151 149 154 164 176 157 137 128 34 351 350 354 0 4 3 1 358 356 350 341 336 338 340 340 343 349 353 353 353 354 354 351 351 351 352 352 351 349 350 354 354 353 352 349 345 344 344 344 344 348 352 354 354 356 359 1 1 1 3 9 14
152 153 152 152 152 151 151 153 155 158 165 166 163 167 174 180 180 166 149 147 143 141 145 146 140 126 116 141 170 135 114 127 310 333 340 344 351 352 351 351 347 344 341 334 329 332 337 338 338 345 352 353 353 355 354 351 350 352 353 353 352 349 351 355 355 354 353 350 346 346 346 345 345 349 353 356 357 359 1 3 4 5 6 10 15
152 154 154 154 154 154 155 159 161 164 169 165 157 155 156 160 167 170 175 179 167 151 147 153 160 154 121 121 170 181 171 243 280 310 326 332 340 340 338 335 329 327 329 328 326 330 332 330 334 346 352 352 354 356 354 351 351 352 354 354 353 351 352 355 355 355 354 351 348 348 348 346 346 348 353 357 358 0 3 5 7 8 10 11 13
153 156 157 157 157 156 161 167 167 166 172 172 162 159 157 145 143 161 188 200 197 194 191 192 196 188 168 160 206 227 231 249 272 298 313 323 331 332 329 321 315 318 321 320 323 329 328 326 335 349 351 353 357 357 354 352 353 353 354 354 353 353 355 354 353 354 354 352 350 350 349 349 348 348 353 357 358 360 4 7 9 11 13 13 14
156 157 158 159 159 159 165 172 169 167 178 181 170 167 173 167 164 177 193 190 196 205 209 211 209 198 196 208 231 237 237 252 279 292 302 318 329 330 325 314 311 315 315 312 314 320 324 327 339 349 351 354 357 355 353 353 354 355 356 355 353 354 356 354 352 354 355 353 352 351 350 350 350 350 354 359 359 360 5 9 11 13 14 16 17
157 157 157 158 159 162 169 175 174 173 181 184 173 171 178 178 179 189 190 181 182 191 195 197 196 191 198 213 228 241 250 264 282 292 301 316 330 335 325 315 316 318 314 308 305 310 320 329 340 348 352 353 354 353 353 354 355 356 358 356 353 353 354 353 352 353 355 354 354 354 352 351 352 352 355 359 1 1 6 11 13 14 16 17 18
157 157 158 159 162 167 172 177 180 180 183 187 183 180 183 184 184 186 186 184 188 193 194 193 192 190 192 197 206 227 247 262 272 283 296 316 338 340 326 320 323 325 319 311 301 306 322 332 339 348 352 351 350 352 354 354 355 357 357 355 354 353 352 352 353 354 355 355 356 356 355 354 354 354 355 359 2 3 6 12 15 16 17 19 20
158 160 161 164 170 174 175 177 183 188 188 191 193 192 191 189 185 183 186 192 196 200 204 205 201 198 193 187 186 200 220 254 270 270 281 304 325 326 319 320 326 325 323 323 322 325 331 335 339 346 349 348 349 352 352 352 354 356 355 354 354 353 352 353 354 354 355 356 356 356 357 356 357 358 357 359 3 3 4 12 17 18 19 20 21
161 163 164 168 176 184 183 180 184 191 194 193 194 198 201 195 186 185 191 199 202 205 210 213 212 208 200 196 201 209 215 233 253 257 265 276 283 291 299 306 313 312 312 318 334 336 332 332 337 343 345 345 347 349 349 349 352 354 354 353 353 353 353 353 353 354 356 358 357 357 358 357 359 2 0 359 2 4 4 9 19 22 23 24 24
166 169 168 170 178 189 195 190 186 191 196 196 193 196 202 202 194 193 198 202 204 211 216 211 208 209 210 211 215 218 221 231 242 246 254 258 258 265 275 285 293 296 298 307 327 331 325 327 335 339 339 341 344 344 345 346 348 350 351 351 351 352 353 354 354 355 357 358 358 358 359 358 359 4 3 359 360 3 4 7 16 24 26 28 27
171 172 173 177 183 188 194 198 195 191 192 195 196 197 200 202 200 204 212 212 209 215 221 205 196 200 210 221 226 223 223 231 239 243 250 253 254 257 265 273 279 281 284 295 313 317 315 319 328 333 335 338 340 340 341 342 343 344 346 347 348 350 352 354 355 355 357 359 358 358 359 359 360 4 6 2 360 2 3 6 12 19 25 29 30
181 176 176 184 193 191 190 195 199 194 190 194 201 203 203 201 200 202 212 219 215 211 216 215 206 207 216 225 227 221 218 223 236 247 254 255 256 258 261 264 269 272 278 291 303 304 306 310 317 326 330 331 334 336 335 336 337 339 341 343 344 347 350 352 354 355 356 358 357 357 359 1 1 5 7 5 3 2 2 4 9 16 21 27 31
192 185 179 185 195 200 197 195 193 189 189 194 203 209 208 205 204 205 209 217 221 217 216 222 229 232 232 226 216 210 211 221 234 246 253 255 256 255 254 257 264 272 278 287 291 292 297 302 307 315 320 323 327 328 327 329 331 332 335 338 340 343 347 350 352 354 355 356 357 357 359 1 3 5 7 7 5 4 3 3 5 12 19 25 30
195 193 185 185 191 199 206 208 198 189 188 195 204 212 213 209 209 212 213 216 222 225 224 226 232 240 244 237 218 205 204 217 232 245 256 263 266 264 260 260 265 269 274 281 283 284 291 296 298 302 306 311 316 318 319 324 327 326 329 333 335 338 343 346 348 353 355 355 357 358 359 0 3 5 6 7 6 5 5 4 4 6 12 19 26
195 193 184 184 188 194 203 214 213 198 191 194 200 210 216 214 211 215 219 222 226 229 231 234 236 240 245 244 232 218 212 221 236 250 261 264 266 266 265 264 264 264 268 274 276 276 280 285 287 291 296 301 308 313 314 318 321 322 323 326 328 332 337 338 343 352 356 354 355 359 359 360 2 4 5 6 7 6 5 5 4 4 6 10 18
196 193 186 186 191 195 199 210 217 209 199 197 200 207 214 217 216 216 218 222 227 231 235 238 240 243 246 243 236 231 230 233 239 248 254 256 258 261 264 266 266 264 265 269 270 270 274 280 283 286 289 291 297 302 305 309 314 316 318 319 321 324 326 327 336 349 355 353 353 358 359 359 0 2 3 5 7 6 4 5 4 3 3 5 10
199 200 193 188 192 198 201 207 214 216 211 206 204 207 212 218 223 224 222 222 224 225 229 235 239 245 250 245 233 230 231 232 235 244 251 253 254 255 256 258 260 259 260 264 267 269 271 275 279 282 285 287 291 294 296 298 302 306 310 311 313 314 312 313 327 343 351 349 350 355 357 357 357 358 360 2 4 4 3 3 3 2 2 4 7
201 203 197 187 188 197 204 208 212 216 217 215 212 211 212 216 222 227 229 230 230 227 227 230 233 236 242 242 235 231 232 233 238 247 253 253 253 254 254 255 256 258 259 259 260 262 266 269 273 276 281 284 286 287 289 290 291 294 301 304 305 304 300 299 312 332 343 344 346 352 355 355 353 354 357 0 1 1 1 1 2 1 1 2 5
201 203 201 192 188 191 199 206 211 214 216 215 214 216 217 219 223 227 230 233 236 236 236 236 234 232 233 235 234 233 233 235 239 244 247 245 244 245 247 249 251 255 257 256 255 257 260 263 267 273 278 282 283 285 290 292 289 285 289 295 297 296 293 291 300 318 331 336 341 347 353 352 348 348 353 358 358 358 359 -0 1 1 360 359 4
201 202 205 202 196 192 194 200 207 212 215 215 215 217 220 222 224 227 229 232 235 237 240 244 244 241 237 235 234 233 233 233 236 241 245 246 245 245 246 247 248 250 254 255 255 255 255 256 264 272 276 280 284 287 290 293 291 286 285 286 285 285 286 287 292 304 316 325 334 340 346 349 343 340 347 354 355 355 356 357 358 359 358 359 1
203 203 207 207 205 202 199 199 204 209 213 217 219 219 221 225 227 228 229 231 233 234 236 239 243 246 246 244 242 242 240 239 239 241 243 245 247 248 249 250 250 251 254 254 253 250 249 250 255 262 267 272 278 282 284 287 287 286 284 281 274 274 278 283 287 293 300 311 323 331 337 340 337 334 338 345 348 349 351 353 354 355 356 358 1
209 207 208 208 210 210 207 206 207 209 212 217 222 222 222 225 229 231 233 235 236 235 234 233 235 238 242 245 246 248 249 250 250 249 247 245 245 246 247 249 249 250 253 255 254 250 247 245 250 257 261 264 267 272 277 281 283 283 282 278 273 270 273 277 281 284 289 298 310 320 326 328 329 329 330 334 339 343 345 347 350 352 352 354 359
218 214 209 209 211 213 214 215 215 214 215 217 221 224 225 225 227 231 234 238 242 243 242 241 239 237 237 239 241 244 246 248 250 252 252 251 249 248 248 250 251 250 252 256 258 255 250 248 251 255 258 259 262 267 273 278 281 281 280 277 273 271 272 273 275 278 283 290 298 307 312 316 321 323 321 323 328 334 338 341 344 347 348 349 355
221 222 218 214 212 213 216 220 222 223 224 222 221 223 226 227 228 231 233 234 238 242 245 247 249 248 245 243 242 242 244 245 246 248 251 252 252 251 250 252 255 256 256 260 264 262 257 254 253 253 254 257 261 265 269 274 279 281 280 276 272 271 272 272 273 275 278 282 289 295 298 302 309 313 312 312 318 324 330 333 336 338 340 344 348
Height
839 840 841 842 843 844 845 846 847 848 849 849 850 850 851 851 852 852 853 853 854 854 854 854 854 854 853 853 853 854 854 854 854 854 854 854 854 854 854 854 854 853 853 853 853 853 852 852 852 852 851 851 850 849 848 846 845 843 842 839 838 836 834 832 828 822 819 818 815 812 809 805 801 799 796 792 789 787 784 782 779 775 773 769 766
838 839 840 841 842 843 845 846 847 848 849 849 850 851 852 852 853 853 854 854 855 855 855 855 855 855 854 855 855 855 855 855 856 856 856 856 856 855 855 855 855 855 854 854 854 854 854 853 853 853 852 852 851 850 848 847 845 843 842 840 838 836 834 832 828 824 819 817 815 812 809 806 802 799 796 793 789 786 783 780 778 775 772 769 765
837 839 840 841 842 843 845 846 847 848 849 850 851 851 852 853 854 854 855 855 856 856 856 856 856 856 856 856 856 856 856 857 857 857 857 857 857 857 857 856 856 856 855 855 855 855 855 854 854 854 853 852 851 850 849 847 846 844 842 840 838 836 834 832 829 826 821 818 815 812 808 806 802 798 796 793 790 787 783 780 777 774 771 768 765
837 839 840 841 842 843 845 846 847 848 849 850 851 852 853 854 855 855 856 856 856 857 857 857 857 857 857 857 857 857 858 858 858 858 858 858 858 858 858 857 857 857 857 857 856 856 856 855 855 855 854 853 852 851 849 848 846 844 842 840 838 836 834 833 830 827 823 818 815 812 809 806 802 799 795 792 789 787 783 780 777 773 770 767 764
837 838 840 841 842 843 845 846 847 848 850 851 852 853 854 855 856 856 857 857 857 858 858 859 859 859 859 859 859 858 858 858 858 858 859 859 859 859 858 858 858 858 858 858 857 857 857 856 856 855 854 854 852 851 850 848 846 844 842 840 838 836 834 832 830 827 824 819 815 812 809 806 802 799 796 792 787 784 782 779 776 773 769 766 763
836 838 840 841 842 844 845 846 848 849 850 851 853 854 855 856 856 857 858 858 859 859 860 860 860 860 860 860 860 860 859 859 858 858 859 859 860 860 860 859 859 859 859 859 858 858 858 857 856 856 855 854 853 851 850 848 846 844 842 840 838 836 834 832 829 827 824 820 816 811 809 805 802 798 796 793 788 783 779 776 774 773 769 765 761
836 838 840 841 843 844 845 847 848 849 850 852 853 854 855 856 857 858 859 859 860 860 861 861 861 861 861 861 861 861 860 860 860 859 859 859 860 861 861 860 860 860 859 859 859 859 859 858 857 856 856 854 853 852 850 848 846 844 842 840 838 836 833 831 829 826 823 820 816 812 808 805 802 798 795 793 790 786 781 775 771 770 769 765 761
836 838 840 841 843 844 846 847 848 849 851 852 854 855 856 857 858 859 859 860 861 861 862 862 863 863 863 862 862 862 861 861 861 860 860 860 860 860 861 861 860 860 860 860 860 860 859 859 858 857 856 855 853 852 850 848 845 843 841 839 837 835 833 830 828 825 822 819 815 812 808 805 802 798 795 792 789 786 784 779 773 769 767 764 761
835 838 840 841 843 844 846 847 848 850 851 852 854 855 856 858 858 859 860 861 862 863 863 864 864 864 864 864 863 863 862 862 862 862 861 861 861 860 861 861 861 861 861 860 860 860 860 859 858 857 856 855 853 852 850 848 845 843 840 838 836 834 832 830 827 824 821 818 815 812 808 805 802 798 795 792 790 786 783 780 775 771 767 762 759
835 837 839 841 843 844 846 847 849 850 851 853 854 856 857 858 859 860 861 862 863 864 864 865 865 866 866 865 865 864 863 863 863 863 863 862 862 861 861 862 862 861 861 861 861 860 860 860 859 858 857 855 853 851 850 847 845 843 840 837 835 833 831 829 826 823 821 818 815 812 808 804 802 799 795 792 789 786 783 780 775 770 767 760 754
834 837 839 841 843 844 846 847 849 850 852 853 855 856 858 859 860 861 862 863 864 864 865 866 866 867 867 866 866 865 864 865 864 864 863 863 862 862 861 862 862 862 861 861 861 860 860 859 859 858 857 855 853 851 849 846 844 842 839 837 835 833 831 828 825 823 821 818 815 812 808 804 801 799 795 790 787 783 780 777 773 769 765 760 752
834 836 838 840 842 844 846 847 849 850 852 854 855 856 858 859 860 862 862 863 865 865 866 867 867 867 867 867 866 866 866 865 865 864 864 863 863 862 862 862 862 862 862 861 861 860 860 859 859 858 857 855 852 850 848 846 843 841 838 836 834 833 831 828 825 823 821 818 815 812 808 804 800 797 794 789 784 781 777 774 771 767 763 759 752
834 836 838 840 842 844 846 847 849 850 852 854 856 857 858 860 861 862 863 864 865 866 867 867 867 868 868 867 867 867 866 866 865 865 864 864 864 863 862 862 863 862 862 862 861 860 860 860 859 857 857 855 852 850 848 846 843 840 838 836 834 833 831 829 826 823 820 817 814 810 807 804 800 796 793 789 783 778 774 770 767 764 759 755 749
834 835 837 840 842 844 846 847 849 851 852 854 856 857 859 860 861 863 864 865 865 866 867 868 868 869 868 868 868 867 867 866 866 865 865 864 864 863 863 863 863 862 862 862 861 860 860 860 858 857 856 855 852 850 848 845 843 840 838 836 834 832 829 827 825 822 819 817 813 809 806 804 800 796 791 788 783 777 771 766 762 759 754 749 744
833 835 837 840 842 844 846 847 849 851 852 854 856 858 859 860 862 863 864 865 866 867 868 868 869 869 869 869 869 868 868 867 866 866 865 865 864 863 863 863 863 863 862 862 861 860 860 859 858 857 856 854 852 850 848 845 842 839 837 835 833 830 828 826 823 820 817 814 811 808 805 802 799 794 789 785 780 774 769 764 759 754 749 743 737
833 835 837 839 842 844 845 847 849 851 853 855 856 858 860 861 862 863 864 866 867 867 868 869 869 870 870 870 870 869 869 868 868 867 866 865 865 864 864 864 863 863 862 862 861 860 859 859 858 857 855 854 852 850 847 845 842 839 837 834 831 829 826 824 822 818 815 812 809 806 803 800 796 791 786 781 776 770 764 759 754 750 744 738 732
832 835 837 839 842 844 845 847 849 851 853 855 856 858 860 861 863 864 865 866 867 868 869 869 870 871 871 871 871 870 870 869 869 868 867 866 866 865 864 864 864 863 862 862 861 860 859 858 857 856 855 853 851 849 847 844 841 838 836 833 830 827 824 821 819 816 813 810 806 803 801 798 793 788 783 778 773 767 760 753 749 745 740 734 728
832 834 837 839 841 843 845 847 849 851 853 855 857 858 860 861 863 864 866 867 868 869 869 870 871 871 871 872 871 871 871 870 870 869 868 868 867 866 866 865 864 864 863 862 861 860 859 858 857 855 854 853 851 848 846 843 840 838 835 832 829 825 822 819 815 813 810 806 804 802 799 795 789 784 779 773 769 764 758 750 745 740 736 731 724
832 834 837 839 841 843 845 847 849 851 853 855 857 858 860 861 863 864 866 867 868 869 870 870 871 871 871 872 872 872 872 871 871 870 869 869 868 867 867 866 865 864 863 862 861 860 859 858 857 855 854 852 850 847 845 843 840 837 834 831 828 824 820 817 814 810 807 803 801 799 795 791 786 780 774 769 764 759 754 748 742 736 731 726 722
831 834 837 839 841 843 845 848 849 851 854 855 857 859 860 861 863 864 866 867 868 869 870 871 871 872 872 872 872 873 872 871 871 871 870 869 869 868 867 866 865 864 864 863 861 861 860 859 857 856 853 851 849 846 844 842 840 837 834 831 828 824 819 816 813 809 806 803 800 797 793 787 782 776 770 764 759 754 749 743 738 733 727 721 717
831 834 836 838 841 843 846 848 850 852 854 856 857 859 860 862 863 864 865 867 868 869 870 871 871 872 872 872 872 873 872 872 872 872 871 870 869 868 868 867 866 865 864 863 862 861 860 859 857 855 852 850 848 846 844 841 839 836 833 831 828 824 819 816 812 809 806 803 799 795 791 785 779 773 767 761 755 750 744 739 734 729 724 718 713
831 834 836 838 841 844 846 848 850 852 854 856 857 859 861 862 863 864 865 867 868 869 870 870 871 871 872 872 872 872 872 872 872 872 871 870 869 869 868 867 866 865 864 863 862 861 860 858 856 854 852 849 847 845 843 841 838 835 833 830 827 823 819 816 813 809 806 802 798 794 790 784 777 770 764 759 753 747 741 736 731 725 720 715 709
831 833 836 838 841 844 846 848 850 853 854 856 858 859 861 862 863 864 866 867 868 869 869 870 870 871 871 872 872 872 872 872 872 872 871 871 870 869 868 867 866 865 864 863 862 861 859 857 855 853 851 848 846 844 842 840 838 835 833 830 827 823 819 816 813 809 805 802 798 794 789 783 776 769 763 757 751 745 740 734 728 721 715 710 704
831 833 836 839 841 844 847 848 851 853 854 856 858 859 861 863 864 865 866 866 867 868 868 869 870 870 871 871 872 872 872 872 872 872 871 871 870 869 868 867 866 865 864 863 862 861 859 857 854 852 850 848 846 844 842 840 838 835 832 830 826 822 819 816 812 809 806 802 798 794 788 783 778 771 765 759 753 746 740 733 726 720 713 707 700
830 833 836 839 842 844 846 849 851 852 854 856 858 860 861 862 864 865 865 865 866 867 867 868 869 869 870 871 871 872 872 872 872 872 871 871 870 869 868 867 866 865 864 863 862 860 858 856 854 851 849 847 845 844 842 840 838 835 832 829 826 823 820 816 813 810 806 803 799 794 789 784 779 773 768 762 755 747 739 732 724 717 711 703 697
830 833 836 839 842 844 846 848 851 852 854 856 858 860 861 862 863 864 864 864 865 865 866 867 868 869 870 870 871 871 872 872 872 872 871 871 870 869 868 867 866 864 863 863 861 859 857 855 852 850 848 847 845 844 842 840 837 835 831 829 826 823 820 817 814 811 808 804 800 795 790 786 781 775 769 762 755 748 740 733 725 718 711 704 697
829 833 836 838 841 843 845 848 850 852 854 856 858 860 861 861 862 863 863 864 864 865 865 866 867 868 869 869 870 870 870 871 871 871 871 870 869 868 867 866 865 864 863 862 860 858 856 854 851 849 848 847 846 844 842 840 837 834 832 829 826 824 821 819 816 813 809 806 801 796 791 786 781 776 770 763 756 750 744 737 729 722 715 709 702
829 832 835 837 840 842 844 847 849 852 854 855 857 859 860 861 862 862 862 862 863 864 865 865 866 867 868 868 869 870 870 870 870 870 870 869 869 868 867 866 864 863 862 861 859 857 855 853 850 849 848 847 845 843 842 840 837 835 832 830 827 824 822 819 816 813 810 806 802 797 792 787 781 776 771 765 759 753 747 741 734 727 720 713 707
829 832 834 837 839 841 843 846 848 851 853 855 856 858 859 860 860 860 861 862 862 863 864 865 866 867 867 868 868 869 869 869 869 870 869 869 868 867 866 865 864 863 862 861 858 856 854 852 850 849 848 846 844 843 841 839 837 835 833 830 827 824 822 819 817 814 811 807 803 798 793 787 782 778 773 768 762 756 751 745 739 732 726 719 713
828 831 833 836 838 841 843 845 848 850 852 854 855 857 858 859 859 860 861 862 862 863 864 864 866 866 867 867 868 868 868 869 869 869 869 868 868 867 865 865 863 862 861 860 858 856 853 851 850 849 848 846 844 843 841 839 837 835 833 831 828 825 822 820 818 815 812 808 804 800 795 789 784 779 775 770 765 760 754 749 744 738 731 725 720
827 830 833 835 837 840 842 845 847 849 851 853 854 856 857 859 859 861 861 862 862 863 864 865 866 866 866 867 867 867 868 868 868 868 868 867 867 866 865 864 862 862 861 859 857 855 853 851 850 849 848 846 844 843 842 839 838 836 833 831 829 826 824 821 818 816 813 809 805 802 797 792 787 782 777 773 768 763 758 753 748 743 737 732 728
826 830 832 835 837 839 842 844 846 848 850 852 853 855 857 858 859 861 862 862 863 863 864 864 865 865 866 866 866 866 867 867 867 867 867 866 866 865 864 863 861 860 860 858 856 854 853 851 851 849 847 846 845 843 842 840 838 836 834 832 830 827 825 823 820 817 814 811 807 804 799 795 790 785 781 776 771 767 762 757 752 747 743 739 735
825 828 831 834 836 839 841 843 845 847 849 851 852 854 855 857 858 859 861 861 862 863 863 864 864 865 865 865 865 866 866 866 866 866 866 865 864 864 863 861 860 859 858 857 855 854 853 852 851 849 848 847 845 844 842 841 839 837 835 833 831 829 827 824 821 818 815 812 809 806 802 797 793 788 784 779 774 770 766 762 758 753 749 745 741
825 827 830 832 835 838 840 842 844 845 847 849 850 852 853 855 856 857 859 860 860 861 862 862 863 863 863 864 864 864 865 865 865 865 865 864 863 863 862 860 859 857 856 855 854 853 853 852 850 849 848 847 845 844 843 841 840 838 836 834 832 830 828 825 822 819 816 813 811 808 804 800 796 791 787 783 778 774 770 766 762 758 754 751 748
825 827 830 832 835 837 838 841 843 844 846 847 848 850 851 852 853 855 856 857 858 858 859 860 860 861 861 862 862 863 863 864 864 863 863 863 862 862 861 859 858 856 855 854 853 853 852 851 850 849 848 847 846 844 843 841 840 838 837 835 833 831 828 825 823 820 818 814 812 809 806 802 798 794 790 786 782 777 773 770 767 764 760 757 754
824 827 829 832 835 836 838 840 842 843 845 846 847 848 849 850 851 852 853 854 855 856 856 857 857 858 859 860 860 861 861 862 862 862 862 862 861 861 860 858 857 856 854 854 853 853 852 851 850 849 848 847 846 844 843 842 840 839 837 836 834 831 829 826 824 821 819 816 813 810 807 804 801 797 793 789 785 782 778 775 772 769 766 763 760
824 826 829 831 834 835 837 838 840 842 843 844 845 846 847 848 850 850 851 852 853 853 854 854 855 857 858 858 858 859 859 860 860 860 860 860 860 859 858 857 856 855 853 853 852 852 851 850 849 848 848 846 845 844 843 842 840 839 837 836 834 832 830 828 825 823 820 817 815 812 809 805 803 800 797 793 789 785 782 778 776 773 771 768 765
824 826 828 830 832 834 836 837 839 840 842 843 844 845 846 847 848 849 850 850 851 852 852 852 852 854 855 855 855 856 857 858 858 858 857 857 857 857 856 855 855 853 852 852 852 851 850 849 849 848 847 846 845 844 843 842 840 839 837 836 834 832 831 828 826 824 821 818 816 813 811 808 805 803 800 796 792 789 785 782 779 777 774 772 769
823 825 827 829 831 832 834 836 837 838 840 841 842 843 844 845 846 847 848 849 849 850 850 851 851 851 851 851 852 854 855 856 856 855 855 855 855 854 854 853 852 852 851 851 850 850 849 849 848 847 847 846 845 844 843 842 840 839 837 836 834 832 830 829 827 824 822 819 817 815 812 809 807 805 802 799 795 793 789 786 783 780 778 776 773
822 824 826 828 830 831 832 834 835 836 838 840 841 842 842 843 844 845 846 847 847 848 848 849 849 849 849 849 849 851 852 853 853 852 852 852 852 852 851 851 851 850 850 849 849 848 848 847 847 846 846 845 844 843 842 841 840 839 837 836 834 832 831 829 827 825 823 821 818 816 813 811 808 806 804 801 798 795 793 789 787 784 782 780 778
822 823 824 826 828 830 831 832 834 834 836 838 839 840 841 841 842 843 844 845 845 846 846 847 847 848 848 847 847 848 849 850 850 850 850 850 850 850 849 849 849 849 848 848 847 847 846 846 846 845 844 844 843 843 842 841 839 838 837 835 834 832 831 829 828 826 824 822 819 817 814 812 810 808 806 803 800 798 795 792 789 787 785 783 781
820 822 823 825 827 828 830 831 832 833 834 836 837 838 839 840 840 842 842 843 843 844 844 845 845 846 846 846 845 846 846 847 847 848 848 848 848 848 847 847 846 846 846 846 845 845 845 844 844 844 843 843 842 841 841 840 839 838 836 835 834 832 831 829 828 826 824 822 820 818 816 814 812 810 807 805 802 800 797 794 792 789 787 785 783
819 820 821 823 826 827 828 830 831 831 832 833 835 836 837 838 838 839 840 841 841 842 842 843 843 843 843 843 844 844 844 844 845 845 845 845 845 845 845 845 844 844 844 844 843 843 843 843 843 842 842 841 841 840 840 839 838 837 836 834 833 832 830 829 827 826 824 822 821 819 817 815 813 811 809 807 804 802 799 797 794 791 789 787 786
818 819 820 821 823 825 827 828 829 830 830 831 832 834 835 836 836 837 837 838 838 839 839 840 841 841 841 841 841 842 842 842 842 842 842 842 842 842 842 842 842 842 842 841 841 842 841 841 841 841 840 840 840 839 838 838 837 836 835 834 833 831 830 828 827 826 824 823 821 819 817 816 814 812 810 808 806 804 801 799 797 794 792 790 788
816 817 817 818 820 823 824 826 827 828 828 829 830 831 832 833 834 834 834 835 835 836 836 837 837 838 839 838 838 839 839 839 840 840 840 840 839 839 840 839 839 839 839 839 839 839 839 839 839 839 839 839 838 837 837 836 835 835 834 833 832 830 829 827 827 826 824 823 821 820 818 816 815 814 811 809 808 806 803 801 799 797 794 792 791
813 814 815 816 818 819 821 823 824 825 826 827 828 829 829 830 831 831 832 832 833 833 834 834 834 835 835 835 835 835 836 836 836 836 836 836 836 836 836 836 836 837 836 836 837 837 837 837 838 837 837 837 836 835 835 834 833 833 832 831 831 829 827 826 826 825 824 823 821 820 818 817 816 815 813 811 809 807 805 803 801 798 796 795 793
811 812 813 814 815 816 818 820 821 822 823 824 825 826 827 827 828 829 829 830 830 831 831 831 832 832 832 832 832 832 832 833 833 833 833 833 833 833 833 833 833 834 834 834 834 834 834 834 834 834 835 834 834 833 833 832 831 831 830 830 829 828 826 825 824 824 823 822 821 820 818 817 816 815 813 812 810 808 806 804 802 800 798 796 795
809 810 811 812 813 814 815 817 818 820 820 821 822 823 824 825 825 826 826 827 827 827 828 828 829 829 829 829 829 829 829 829 829 829 829 829 829 830 830 830 830 831 831 830 830 830 830 830 830 830 830 830 830 830 830 829 829 828 828 828 827 826 825 824 823 822 822 821 820 819 818 817 816 815 813 812 811 809 807 806 804 802 799 798 796
807 808 809 810 811 812 813 814 815 816 817 819 819 820 821 822 822 823 823 824 824 824 824 824 825 825 826 826 826 826 826 826 826 826 826 826 826 826 827 827 827 827 827 826 826 825 825 825 825 825 825 826 826 826 826 826 826 825 825 825 825 824 823 822 821 820 820 819 819 818 817 816 815 814 813 812 811 810 808 807 805 803 801 799 798
805 805 806 807 808 809 810 812 812 813 814 815 816 817 818 818 819 820 820 821 821 821 821 821 821 821 822 822 822 823 823 823 823 823 823 823 823 823 823 823 823 823 823 822 822 822 822 822 822 822 822 822 822 823 823 823 823 822 822 822 822 821 820 820 819 818 818 817 817 816 815 815 814 813 812 811 811 810 808 807 805 804 802 801 799
803 803 804 805 806 807 808 809 810 811 811 812 813 814 814 815 816 816 817 817 818 818 818 818 818 818 818 818 818 819 819 819 819 819 819 819 820 820 820 820 820 819 819 819 819 819 820 819 819 819 819 819 819 819 819 819 819 819 819 819 819 818 818 817 816 815 815 815 814 814 813 813 812 811 811 810 810 809 808 807 806 804 803 801 800